Location: ????????
(37.6846°N, 24.0673°E)
Time: 15:02:24
(UTC+00:00)

Cosmos 1656 - Pass Details

Date: 14 July 2020
Orbit: 800 x 848 km, 71.1° (Epoch: 03 August)

Event Time Altitude Azimuth Distance (km) Brightness Sun altitude
Rises 00:48:27 0° 331° (NNW) 3,313 7.1 -22.3°
Reaches altitude 10° 00:50:56 10° 325° (NW) 2,381 6.3 -22.0°
Maximum altitude 00:56:05 45° 254° (WSW) 1,081 3.9 -21.4°
Enters shadow 00:56:34 44° 238° (WSW) 1,099 3.8 -21.4°
